| time (UTC) | temp F | wind direction | speed knots | gust knots | rain 1hr in | rain 24hr in | rain mn in | humidity % | barometer mb |
| 20260904190009 | 72 | 181 | 2.6 | 7.8 | 0.00 | 0.03 | 0.03 | 58 | 1014.3 |
| 20260904185010 | 71 | 146 | 4.3 | 9.6 | 0.00 | 0.03 | 0.03 | 61 | 1014.3 |
| 20260904184014 | 70 | 116 | 3.5 | 9.6 | 0.00 | 0.03 | 0.03 | 62 | 1014.5 |
| 20260904183010 | 71 | 155 | 4.3 | 8.7 | 0.00 | 0.03 | 0.03 | 64 | 1014.4 |
| 20260904182011 | 70 | 132 | 5.2 | 8.7 | 0.00 | 0.03 | 0.03 | 64 | 1014.4 |
| 20260904181008 | 70 | 91 | 4.3 | 9.6 | 0.00 | 0.03 | 0.03 | 65 | 1014.5 |
| 20260904180008 | 69 | 180 | 6.1 | 11.3 | 0.00 | 0.03 | 0.03 | 66 | 1014.5 |
| 20260904175008 | 69 | 141 | 4.3 | 8.7 | 0.00 | 0.03 | 0.03 | 68 | 1014.6 |
| 20260904174009 | 69 | 154 | 0.9 | 7.0 | 0.00 | 0.03 | 0.03 | 70 | 1014.5 |
| 20260904173014 | 67 | 245 | 1.7 | 7.8 | 0.00 | 0.03 | 0.03 | 73 | 1014.5 |
| 20260904172010 | 68 | 117 | 2.6 | 7.0 | 0.00 | 0.03 | 0.03 | 72 | 1014.4 |
| 20260904171013 | 67 | 195 | 5.2 | 10.4 | 0.00 | 0.03 | 0.03 | 73 | 1014.4 |
| 20260904170019 | 66 | 217 | 4.3 | 9.6 | 0.00 | 0.03 | 0.03 | 73 | 1014.3 |
| 20260904165015 | 66 | 124 | 5.2 | 9.6 | 0.00 | 0.03 | 0.03 | 74 | 1014.2 |
| 20260904164014 | 65 | 128 | 2.6 | 8.7 | 0.00 | 0.03 | 0.03 | 78 | 1014.2 |
| 20260904163036 | 65 | 170 | 5.2 | 9.6 | 0.00 | 0.03 | 0.03 | 80 | 1014.1 |
| 20260904162015 | 65 | 145 | 5.2 | 8.7 | 0.00 | 0.03 | 0.03 | 80 | 1014.0 |
| 20260904161016 | 64 | 170 | 1.7 | 5.2 | 0.00 | 0.03 | 0.03 | 82 | 1013.9 |
| 20260904160041 | 63 | 186 | 3.5 | 7.0 | 0.00 | 0.03 | 0.03 | 84 | 1013.9 |
| 20260904155038 | 62 | 170 | 3.5 | 8.7 | 0.00 | 0.03 | 0.03 | 86 | 1013.9 |
| 20260904154022 | 61 | 167 | 3.5 | 7.0 | 0.00 | 0.03 | 0.03 | 88 | 1013.9 |
| 20260904153025 | 60 | 151 | 3.5 | 8.7 | 0.00 | 0.03 | 0.03 | 88 | 1013.7 |
| 20260904152022 | 60 | 170 | 4.3 | 7.0 | 0.00 | 0.03 | 0.03 | 89 | 1013.7 |
| 20260904151024 | 60 | 184 | 1.7 | 5.2 | 0.00 | 0.03 | 0.03 | 89 | 1013.7 |
| 20260904150009 | 60 | 178 | 3.5 | 7.0 | 0.00 | 0.03 | 0.03 | 89 | 1013.5 |
| 20260904145006 | 60 | 207 | 0.9 | 5.2 | 0.00 | 0.03 | 0.03 | 90 | 1013.5 |
| 20260904144008 | 60 | 188 | 0.0 | 3.5 | 0.00 | 0.03 | 0.03 | 90 | 1013.4 |
| 20260904143012 | 60 | 180 | 0.9 | 3.5 | 0.00 | 0.03 | 0.03 | 90 | 1013.3 |
| 20260904142010 | 60 | 228 | 1.7 | 5.2 | 0.00 | 0.03 | 0.03 | 90 | 1013.2 |
| 20260904141010 | 60 | 176 | 1.7 | 5.2 | 0.00 | 0.03 | 0.03 | 90 | 1013.0 |
| 20260904140035 | 60 | 191 | 1.7 | 3.5 | 0.00 | 0.03 | 0.03 | 90 | 1013.0 |
| 20260904135013 | 60 | 168 | 2.6 | 6.1 | 0.00 | 0.03 | 0.03 | 90 | 1012.6 |
| 20260904134018 | 60 | 174 | 2.6 | 6.1 | 0.00 | 0.03 | 0.03 | 90 | 1012.4 |
| 20260904133020 | 60 | 172 | 3.5 | 6.1 | 0.00 | 0.03 | 0.03 | 90 | 1012.5 |
| 20260904132014 | 61 | 161 | 1.7 | 4.3 | 0.00 | 0.03 | 0.03 | 91 | 1012.5 |
| 20260904131019 | 61 | 159 | 1.7 | 5.2 | 0.00 | 0.03 | 0.03 | 91 | 1012.5 |
| 20260904130021 | 61 | 180 | 2.6 | 6.1 | 0.00 | 0.03 | 0.03 | 91 | 1012.4 |
| 20260904125023 | 61 | 153 | 2.6 | 5.2 | 0.00 | 0.03 | 0.03 | 91 | 1012.3 |
| 20260904124020 | 61 | 187 | 2.6 | 5.2 | 0.00 | 0.03 | 0.03 | 91 | 1012.3 |
| 20260904123024 | 61 | 145 | 1.7 | 7.0 | 0.00 | 0.03 | 0.03 | 91 | 1012.2 |
| 20260904122007 | 61 | 175 | 2.6 | 7.0 | 0.00 | 0.03 | 0.03 | 91 | 1012.2 |
| 20260904121007 | 61 | 137 | 2.6 | 7.0 | 0.00 | 0.03 | 0.03 | 91 | 1012.0 |
| 20260904120015 | 62 | 157 | 2.6 | 6.1 | 0.00 | 0.03 | 0.03 | 91 | 1012.0 |
| 20260904115040 | 62 | 176 | 0.9 | 5.2 | 0.00 | 0.03 | 0.03 | 91 | 1012.0 |
| 20260904114019 | 62 | 164 | 1.7 | 4.3 | 0.00 | 0.03 | 0.03 | 91 | 1012.0 |
| 20260904113023 | 62 | 131 | 1.7 | 4.3 | 0.00 | 0.03 | 0.03 | 91 | 1012.0 |
| 20260904112007 | 62 | 181 | 1.7 | 5.2 | 0.00 | 0.03 | 0.03 | 91 | 1012.0 |
| 20260904111006 | 62 | 179 | 2.6 | 5.2 | 0.00 | 0.03 | 0.03 | 91 | 1011.9 |
| 20260904110027 | 62 | 139 | 2.6 | 3.5 | 0.00 | 0.03 | 0.03 | 91 | 1011.8 |
| 20260904105007 | 62 | 185 | 0.9 | 5.2 | 0.00 | 0.03 | 0.03 | 90 | 1011.9 |
| 20260904104024 | 62 | 151 | 2.6 | 5.2 | 0.00 | 0.03 | 0.03 | 91 | 1011.7 |
| 20260904103007 | 62 | 112 | 2.6 | 3.5 | 0.00 | 0.03 | 0.03 | 91 | 1011.6 |
| 20260904102014 | 62 | 174 | 0.9 | 3.5 | 0.00 | 0.03 | 0.03 | 90 | 1011.5 |
| 20260904101014 | 62 | 169 | 1.7 | 5.2 | 0.00 | 0.03 | 0.03 | 90 | 1011.6 |
| 20260904100016 | 62 | 199 | 1.7 | 5.2 | 0.00 | 0.03 | 0.03 | 90 | 1011.6 |
| 20260904095041 | 62 | 158 | 1.7 | 4.3 | 0.00 | 0.03 | 0.03 | 90 | 1011.6 |
| 20260904094040 | 63 | 186 | 1.7 | 4.3 | 0.00 | 0.03 | 0.03 | 90 | 1011.6 |
| 20260904093006 | 63 | 240 | 0.9 | 4.3 | 0.00 | 0.03 | 0.03 | 90 | 1011.6 |
| 20260904092011 | 63 | 189 | 0.9 | 3.5 | 0.00 | 0.03 | 0.03 | 90 | 1011.4 |
| 20260904091016 | 63 | 180 | 0.9 | 2.6 | 0.00 | 0.03 | 0.03 | 89 | 1011.3 |
| 20260904090017 | 63 | 184 | 0.9 | 3.5 | 0.01 | 0.03 | 0.03 | 89 | 1011.4 |
| 20260904085020 | 63 | 194 | 1.7 | 3.5 | 0.01 | 0.03 | 0.03 | 89 | 1011.5 |
| 20260904084042 | 63 | 179 | 0.9 | 3.5 | 0.02 | 0.03 | 0.03 | 89 | 1011.5 |
| 20260904083019 | 63 | 182 | 0.0 | 3.5 | 0.02 | 0.03 | 0.03 | 88 | 1011.5 |
| 20260904082023 | 63 | 159 | 0.9 | 6.1 | 0.03 | 0.03 | 0.03 | 88 | 1011.5 |
| 20260904081047 | 64 | 149 | 1.7 | 6.1 | 0.02 | 0.02 | 0.02 | 87 | 1011.6 |
| 20260904080022 | 64 | 153 | 1.7 | 5.2 | 0.02 | 0.02 | 0.02 | 87 | 1011.5 |
| 20260904075043 | 64 | 139 | 2.6 | 7.0 | 0.02 | 0.02 | 0.02 | 85 | 1011.4 |
| 20260904074022 | 65 | 186 | 3.5 | 7.8 | 0.01 | 0.01 | 0.01 | 85 | 1011.5 |
| 20260904073021 | 65 | 166 | 3.5 | 6.1 | 0.01 | 0.01 | 0.01 | 84 | 1011.6 |
| 20260904072008 | 65 | 146 | 1.7 | 6.1 | 0.00 | 0.00 | 0.00 | 84 | 1011.6 |
| 20260904071012 | 65 | 199 | 2.6 | 7.0 | 0.00 | 0.00 | 0.00 | 85 | 1011.6 |
| 20260904070024 | 65 | 193 | 0.9 | 6.1 | 0.00 | 0.00 | 0.00 | 85 | 1011.5 |
| 20260904065020 | 65 | 153 | 0.9 | 3.5 | 0.00 | 0.00 | 0.00 | 85 | 1011.5 |
| 20260904064042 | 65 | 160 | 0.9 | 1.7 | 0.00 | 0.00 | 0.00 | 86 | 1011.6 |
| 20260904063020 | 65 | 339 | 0.0 | 0.0 | 0.00 | 0.00 | 0.00 | 86 | 1011.6 |
| 20260904062041 | 65 | 339 | 0.0 | 0.0 | 0.00 | 0.00 | 0.00 | 85 | 1011.5 |
| 20260904061044 | 65 | 339 | 0.0 | 0.0 | 0.00 | 0.00 | 0.00 | 84 | 1011.5 |
| 20260904060017 | 65 | 339 | 0.0 | 0.0 | 0.00 | 0.00 | 0.00 | 84 | 1011.6 |
| 20260904055019 | 66 | 339 | 0.0 | 0.0 | 0.00 | 0.00 | 0.00 | 82 | 1011.5 |
| 20260904054021 | 66 | 339 | 0.0 | 0.0 | 0.00 | 0.00 | 0.00 | 82 | 1011.6 |
| 20260904053017 | 66 | 339 | 0.0 | 0.0 | 0.00 | 0.00 | 0.00 | 80 | 1011.7 |
| 20260904052015 | 66 | 339 | 0.0 | 0.0 | 0.00 | 0.00 | 0.00 | 79 | 1011.8 |
| 20260904051013 | 66 | 339 | 0.0 | 0.0 | 0.00 | 0.00 | 0.00 | 77 | 1011.7 |
| 20260904050007 | 67 | 339 | 0.0 | 0.0 | 0.00 | 0.00 | 0.00 | 77 | 1011.8 |
| 20260904045011 | 67 | 8 | 0.0 | 0.9 | 0.00 | 0.00 | 0.00 | 76 | 1011.7 |
| 20260904044012 | 67 | 99 | 0.0 | 2.6 | 0.00 | 0.00 | 0.00 | 75 | 1011.7 |
| 20260904043030 | 67 | 73 | 0.9 | 3.5 | 0.00 | 0.00 | 0.00 | 75 | 1011.5 |
| 20260904042031 | 67 | 260 | 0.9 | 2.6 | 0.00 | 0.00 | 0.00 | 75 | 1011.6 |
| 20260904041016 | 67 | 47 | 0.0 | 1.7 | 0.00 | 0.00 | 0.00 | 74 | 1011.6 |
| 20260904040025 | 67 | 16 | 0.9 | 2.6 | 0.00 | 0.00 | 0.00 | 74 | 1011.7 |
| 20260904035047 | 67 | 317 | 0.9 | 2.6 | 0.00 | 0.00 | 0.00 | 74 | 1011.7 |
| 20260904034010 | 67 | 1 | 1.7 | 4.3 | 0.00 | 0.00 | 0.00 | 73 | 1011.6 |
| 20260904033046 | 68 | 331 | 1.7 | 6.1 | 0.00 | 0.00 | 0.00 | 72 | 1011.4 |
| 20260904032021 | 68 | 327 | 2.6 | 4.3 | 0.00 | 0.00 | 0.00 | 72 | 1011.4 |
| 20260904031044 | 68 | 309 | 2.6 | 4.3 | 0.00 | 0.00 | 0.00 | 72 | 1011.3 |
| 20260904030024 | 69 | 287 | 2.6 | 7.8 | 0.00 | 0.00 | 0.00 | 70 | 1011.1 |
| 20260904025027 | 69 | 280 | 2.6 | 3.5 | 0.00 | 0.00 | 0.00 | 72 | 1011.2 |
| 20260904024026 | 70 | 278 | 0.0 | 3.5 | 0.00 | 0.00 | 0.00 | 72 | 1011.4 |
| 20260904023026 | 70 | 255 | 1.7 | 5.2 | 0.00 | 0.00 | 0.00 | 72 | 1011.4 |
| 20260904022028 | 70 | 260 | 2.6 | 4.3 | 0.00 | 0.00 | 0.00 | 71 | 1011.4 |
| 20260904021009 | 70 | 249 | 0.9 | 4.3 | 0.00 | 0.00 | 0.00 | 71 | 1011.3 |
| 20260904020012 | 70 | 236 | 2.6 | 7.0 | 0.00 | 0.00 | 0.00 | 70 | 1011.4 |
| 20260904015028 | 70 | 270 | 0.0 | 5.2 | 0.00 | 0.00 | 0.00 | 69 | 1011.4 |
| 20260904014011 | 71 | 260 | 3.5 | 7.8 | 0.00 | 0.00 | 0.00 | 69 | 1011.4 |
| 20260904013010 | 71 | 238 | 4.3 | 9.6 | 0.00 | 0.00 | 0.00 | 68 | 1011.6 |
| 20260904012010 | 71 | 289 | 4.3 | 10.4 | 0.00 | 0.00 | 0.00 | 67 | 1011.6 |
| 20260904011016 | 71 | 265 | 4.3 | 7.8 | 0.00 | 0.00 | 0.00 | 67 | 1011.6 |
| 20260904010018 | 72 | 254 | 4.3 | 10.4 | 0.00 | 0.00 | 0.00 | 67 | 1011.7 |
| 20260904005018 | 72 | 248 | 3.5 | 9.6 | 0.00 | 0.00 | 0.00 | 66 | 1011.8 |
| 20260904004017 | 72 | 189 | 5.2 | 10.4 | 0.00 | 0.00 | 0.00 | 65 | 1011.9 |
| 20260904003018 | 73 | 251 | 4.3 | 10.4 | 0.00 | 0.00 | 0.00 | 65 | 1011.8 |
| 20260904002041 | 73 | 254 | 4.3 | 9.6 | 0.00 | 0.00 | 0.00 | 64 | 1011.6 |
| 20260904001043 | 73 | 241 | 4.3 | 10.4 | 0.00 | 0.00 | 0.00 | 64 | 1011.7 |
| 20260904000046 | 73 | 260 | 4.3 | 10.4 | 0.00 | 0.00 | 0.00 | 64 | 1011.7 |
| 20260903235024 | 74 | 256 | 3.5 | 8.7 | 0.00 | 0.00 | 0.00 | 64 | 1011.8 |
| 20260903234025 | 74 | 208 | 2.6 | 11.3 | 0.00 | 0.00 | 0.00 | 63 | 1011.8 |
| 20260903233028 | 74 | 254 | 4.3 | 10.4 | 0.00 | 0.00 | 0.00 | 63 | 1011.7 |
| 20260903232025 | 74 | 207 | 4.3 | 7.8 | 0.00 | 0.00 | 0.00 | 62 | 1011.8 |
| 20260903231026 | 74 | 265 | 6.1 | 10.4 | 0.00 | 0.00 | 0.00 | 62 | 1012.1 |
| 20260903230028 | 74 | 248 | 4.3 | 10.4 | 0.00 | 0.00 | 0.00 | 62 | 1012.1 |
| 20260903225010 | 75 | 236 | 4.3 | 13.9 | 0.00 | 0.00 | 0.00 | 61 | 1012.0 |
| 20260903224023 | 75 | 245 | 2.6 | 9.6 | 0.00 | 0.00 | 0.00 | 61 | 1012.1 |
| 20260903223025 | 75 | 199 | 6.1 | 9.6 | 0.00 | 0.00 | 0.00 | 60 | 1012.2 |
| 20260903222040 | 75 | 201 | 2.6 | 8.7 | 0.00 | 0.00 | 0.00 | 60 | 1012.4 |
| 20260903221023 | 75 | 203 | 3.5 | 9.6 | 0.00 | 0.00 | 0.00 | 61 | 1012.4 |
| 20260903220023 | 74 | 216 | 3.5 | 9.6 | 0.00 | 0.00 | 0.00 | 61 | 1012.8 |
| 20260903215027 | 75 | 235 | 2.6 | 9.6 | 0.00 | 0.00 | 0.00 | 60 | 1012.8 |
| 20260903214027 | 74 | 205 | 1.7 | 8.7 | 0.00 | 0.00 | 0.00 | 61 | 1012.8 |
| 20260903213009 | 74 | 249 | 3.5 | 10.4 | 0.00 | 0.00 | 0.00 | 61 | 1013.1 |
| 20260903212011 | 74 | 245 | 4.3 | 9.6 | 0.00 | 0.00 | 0.00 | 62 | 1013.1 |
| 20260903211010 | 74 | 224 | 4.3 | 7.8 | 0.00 | 0.00 | 0.00 | 62 | 1013.1 |
| 20260903210016 | 73 | 252 | 6.1 | 10.4 | 0.00 | 0.00 | 0.00 | 62 | 1013.2 |
| 20260903205017 | 73 | 198 | 6.1 | 11.3 | 0.00 | 0.00 | 0.00 | 62 | 1013.1 |
| 20260903204011 | 74 | 178 | 4.3 | 7.8 | 0.00 | 0.00 | 0.00 | 61 | 1013.2 |
| 20260903203015 | 74 | 324 | 3.5 | 9.6 | 0.00 | 0.00 | 0.00 | 62 | 1013.2 |
| 20260903202019 | 74 | 247 | 2.6 | 8.7 | 0.00 | 0.00 | 0.00 | 61 | 1013.3 |
| 20260903201036 | 74 | 237 | 3.5 | 8.7 | 0.00 | 0.00 | 0.00 | 60 | 1013.4 |
| 20260903200018 | 74 | 193 | 3.5 | 8.7 | 0.00 | 0.00 | 0.00 | 60 | 1013.4 |
| 20260903195017 | 74 | 178 | 2.6 | 7.0 | 0.00 | 0.00 | 0.00 | 62 | 1013.6 |
| 20260903194022 | 75 | 245 | 4.3 | 8.7 | 0.00 | 0.00 | 0.00 | 60 | 1013.8 |
| 20260903193039 | 75 | 162 | 3.5 | 9.6 | 0.00 | 0.00 | 0.00 | 60 | 1013.8 |
| 20260903192019 | 74 | 230 | 2.6 | 7.8 | 0.00 | 0.00 | 0.00 | 62 | 1013.9 |
| 20260903191018 | 74 | 234 | 2.6 | 7.8 | 0.00 | 0.00 | 0.00 | 62 | 1014.0 |